QPF
0.01 0.01 0.01 0.01 0.01 0.00 0.00 0.00 0.00 0.00 0.00 0.00 0.00 0.01 0.01 0.01 0.00 0.00 0.00 0.00 0.00 0.00 0.00 0.00 0.00 0.00 0.00 0.00 0.00 0.00 0.00 0.00 0.00 0.00 0.00 0.00 0.00 0.00 0.00 0.00 0.00 0.00 0.00 0.00 0.00 0.00 0.00
0.00 0.00 0.02 0.03 0.02 0.02 0.01 0.01 0.01 0.01 0.00 0.00 0.00 0.00 0.01 0.01 0.00 0.00 0.00 0.00 0.00 0.00 0.00 0.00 0.00 0.00 0.00 0.00 0.00 0.00 0.00 0.00 0.00 0.00 0.00 0.00 0.00 0.00 0.00 0.00 0.00 0.00 0.00 0.00 0.00 0.00 0.00
0.02 0.00 0.00 0.02 0.01 0.00 0.03 0.05 0.06 0.06 0.02 0.00 0.00 0.00 0.00 0.00 0.00 0.00 0.00 0.00 0.00 0.00 0.00 0.00 0.00 0.00 0.00 0.00 0.00 0.00 0.00 0.00 0.00 0.00 0.00 0.00 0.00 0.00 0.00 0.00 0.00 0.00 0.00 0.00 0.00 0.00 0.00
0.05 0.03 0.01 0.01 0.01 0.02 0.04 0.04 0.05 0.07 0.07 0.06 0.03 0.01 0.00 0.00 0.00 0.00 0.00 0.00 0.00 0.00 0.00 0.00 0.00 0.00 0.00 0.00 0.00 0.00 0.00 0.00 0.00 0.00 0.00 0.00 0.00 0.00 0.00 0.00 0.00 0.00 0.00 0.00 0.00 0.00 0.00
0.04 0.05 0.02 0.01 0.01 0.01 0.02 0.03 0.03 0.04 0.09 0.10 0.07 0.03 0.00 0.00 0.00 0.00 0.00 0.00 0.00 0.00 0.00 0.00 0.00 0.00 0.00 0.00 0.00 0.00 0.00 0.00 0.00 0.00 0.00 0.00 0.00 0.00 0.00 0.00 0.00 0.00 0.00 0.00 0.00 0.00 0.00
0.05 0.04 0.04 0.02 0.00 0.02 0.01 0.01 0.02 0.03 0.05 0.06 0.07 0.03 0.02 0.01 0.01 0.00 0.00 0.00 0.00 0.00 0.00 0.00 0.00 0.00 0.00 0.00 0.00 0.00 0.00 0.00 0.00 0.00 0.00 0.00 0.00 0.00 0.00 0.00 0.00 0.00 0.00 0.00 0.00 0.00 0.00
0.05 0.03 0.04 0.03 0.02 0.02 0.02 0.01 0.03 0.05 0.04 0.02 0.05 0.11 0.08 0.02 0.02 0.00 0.00 0.00 0.00 0.00 0.00 0.00 0.00 0.00 0.00 0.00 0.00 0.00 0.00 0.00 0.00 0.00 0.00 0.00 0.00 0.00 0.00 0.00 0.00 0.00 0.00 0.00 0.00 0.00 0.00
0.06 0.05 0.03 0.05 0.02 0.02 0.01 0.02 0.01 0.03 0.04 0.03 0.05 0.18 0.14 0.05 0.03 0.01 0.00 0.00 0.00 0.00 0.00 0.00 0.00 0.00 0.00 0.00 0.00 0.00 0.00 0.00 0.00 0.00 0.00 0.00 0.00 0.00 0.00 0.00 0.00 0.00 0.00 0.00 0.00 0.00 0.00
0.05 0.04 0.04 0.05 0.05 0.02 0.01 0.00 0.01 0.01 0.03 0.04 0.03 0.12 0.24 0.15 0.07 0.01 0.00 0.00 0.00 0.00 0.00 0.00 0.00 0.00 0.00 0.00 0.00 0.00 0.00 0.00 0.00 0.00 0.00 0.00 0.00 0.00 0.00 0.00 0.00 0.00 0.00 0.00 0.00 0.00 0.00
0.03 0.02 0.05 0.05 0.06 0.04 0.01 0.00 0.00 0.01 0.03 0.06 0.04 0.07 0.29 0.32 0.21 0.02 0.00 0.00 0.00 0.00 0.00 0.00 0.00 0.00 0.00 0.00 0.00 0.00 0.00 0.00 0.00 0.00 0.00 0.00 0.00 0.00 0.00 0.00 0.00 0.00 0.00 0.00 0.00 0.00 0.00
0.03 0.02 0.06 0.04 0.04 0.04 0.01 0.00 0.00 0.01 0.02 0.05 0.05 0.13 0.20 0.51 0.37 0.05 0.00 0.00 0.00 0.00 0.00 0.00 0.00 0.00 0.00 0.00 0.00 0.00 0.00 0.00 0.00 0.00 0.00 0.00 0.00 0.00 0.00 0.00 0.00 0.00 0.00 0.00 0.00 0.00 0.00
0.06 0.05 0.06 0.05 0.02 0.01 0.01 0.01 0.00 0.00 0.01 0.03 0.07 0.17 0.27 0.35 0.29 0.04 0.00 0.00 0.00 0.00 0.00 0.00 0.00 0.00 0.00 0.00 0.00 0.00 0.00 0.00 0.00 0.00 0.00 0.00 0.00 0.00 0.00 0.00 0.00 0.00 0.00 0.00 0.00 0.00 0.00
0.04 0.04 0.04 0.06 0.06 0.05 0.01 0.01 0.01 0.01 0.01 0.03 0.05 0.12 0.33 0.41 0.33 0.02 0.00 0.00 0.02 0.00 0.00 0.00 0.00 0.00 0.00 0.00 0.00 0.00 0.00 0.00 0.00 0.00 0.00 0.00 0.00 0.00 0.00 0.00 0.00 0.00 0.00 0.00 0.00 0.00 0.00
0.01 0.01 0.01 0.04 0.06 0.03 0.01 0.05 0.05 0.02 0.02 0.01 0.01 0.07 0.29 0.33 0.20 0.18 0.11 0.04 0.01 0.00 0.00 0.00 0.00 0.00 0.00 0.00 0.00 0.00 0.00 0.00 0.00 0.00 0.00 0.00 0.00 0.00 0.00 0.00 0.00 0.00 0.00 0.00 0.00 0.00 0.00
0.02 0.01 0.03 0.03 0.03 0.01 0.01 0.02 0.02 0.04 0.01 0.00 0.02 0.03 0.15 0.22 0.25 0.36 0.29 0.10 0.01 0.00 0.00 0.00 0.00 0.00 0.00 0.00 0.00 0.00 0.00 0.00 0.00 0.00 0.00 0.00 0.00 0.00 0.00 0.00 0.00 0.00 0.00 0.00 0.00 0.00 0.00
0.02 0.03 0.09 0.08 0.04 0.04 0.03 0.01 0.00 0.01 0.00 0.00 0.04 0.04 0.03 0.10 0.35 0.55 0.41 0.11 0.01 0.00 0.00 0.00 0.00 0.00 0.00 0.00 0.00 0.00 0.00 0.00 0.00 0.00 0.00 0.00 0.00 0.00 0.00 0.00 0.00 0.00 0.00 0.00 0.00 0.00 0.00
0.03 0.03 0.06 0.07 0.04 0.03 0.03 0.00 0.01 0.02 0.00 0.01 0.07 0.07 0.00 0.07 0.47 0.70 0.51 0.08 0.00 0.00 0.00 0.00 0.00 0.00 0.00 0.00 0.00 0.00 0.00 0.00 0.00 0.00 0.00 0.00 0.00 0.00 0.00 0.00 0.00 0.00 0.00 0.00 0.00 0.00 0.00
0.03 0.05 0.04 0.04 0.04 0.01 0.00 0.00 0.02 0.02 0.01 0.03 0.12 0.08 0.02 0.15 0.68 0.77 0.37 0.01 0.00 0.00 0.00 0.00 0.00 0.00 0.00 0.00 0.00 0.00 0.00 0.00 0.00 0.00 0.00 0.00 0.00 0.00 0.00 0.00 0.00 0.00 0.00 0.00 0.00 0.00 0.00
0.02 0.04 0.04 0.04 0.01 0.00 0.00 0.01 0.03 0.03 0.05 0.13 0.13 0.03 0.04 0.32 0.64 0.50 0.16 0.00 0.00 0.00 0.00 0.00 0.00 0.00 0.00 0.00 0.00 0.00 0.00 0.00 0.00 0.00 0.00 0.00 0.00 0.00 0.00 0.00 0.00 0.00 0.00 0.00 0.00 0.00 0.00
0.03 0.03 0.02 0.03 0.01 0.01 0.00 0.01 0.04 0.05 0.07 0.16 0.19 0.09 0.12 0.27 0.43 0.13 0.03 0.00 0.00 0.00 0.00 0.00 0.00 0.00 0.00 0.00 0.00 0.00 0.00 0.00 0.00 0.00 0.00 0.00 0.00 0.00 0.00 0.00 0.00 0.00 0.00 0.00 0.00 0.00 0.00
0.04 0.03 0.02 0.01 0.02 0.03 0.03 0.03 0.04 0.06 0.05 0.18 0.23 0.18 0.31 0.36 0.22 0.06 0.02 0.00 0.00 0.00 0.00 0.00 0.00 0.00 0.00 0.00 0.00 0.00 0.00 0.00 0.00 0.00 0.00 0.00 0.00 0.00 0.00 0.00 0.00 0.00 0.00 0.00 0.00 0.00 0.00
0.03 0.02 0.02 0.01 0.01 0.04 0.04 0.03 0.04 0.05 0.03 0.12 0.25 0.25 0.29 0.36 0.23 0.04 0.05 0.01 0.00 0.00 0.00 0.00 0.00 0.00 0.00 0.00 0.00 0.00 0.00 0.00 0.00 0.00 0.00 0.00 0.00 0.00 0.00 0.00 0.00 0.00 0.00 0.00 0.00 0.00 0.00
0.02 0.02 0.02 0.01 0.01 0.02 0.02 0.02 0.02 0.04 0.05 0.07 0.16 0.21 0.25 0.21 0.32 0.19 0.09 0.01 0.00 0.00 0.00 0.00 0.00 0.00 0.00 0.00 0.00 0.00 0.00 0.00 0.00 0.00 0.00 0.00 0.00 0.00 0.00 0.00 0.00 0.00 0.00 0.00 0.00 0.00 0.00
0.01 0.02 0.02 0.03 0.01 0.00 0.01 0.00 0.01 0.02 0.05 0.06 0.13 0.18 0.19 0.15 0.18 0.31 0.11 0.01 0.00 0.00 0.00 0.00 0.00 0.00 0.00 0.00 0.00 0.00 0.00 0.00 0.00 0.00 0.00 0.00 0.00 0.00 0.00 0.00 0.00 0.00 0.00 0.00 0.00 0.00 0.00
0.00 0.01 0.02 0.03 0.02 0.00 0.00 0.00 0.00 0.01 0.03 0.03 0.06 0.13 0.17 0.15 0.14 0.11 0.13 0.05 0.01 0.02 0.02 0.01 0.00 0.00 0.00 0.00 0.00 0.01 0.03 0.04 0.02 0.00 0.00 0.00 0.00 0.00 0.00 0.00 0.00 0.00 0.00 0.00 0.00 0.00 0.00
0.00 0.00 0.01 0.02 0.02 0.01 0.01 0.00 0.00 0.01 0.02 0.01 0.03 0.09 0.15 0.14 0.12 0.13 0.06 0.06 0.08 0.10 0.09 0.03 0.02 0.03 0.02 0.02 0.02 0.04 0.04 0.03 0.04 0.03 0.00 0.00 0.00 0.00 0.01 0.01 0.00 0.00 0.00 0.00 0.00 0.00 0.00
0.01 0.01 0.01 0.01 0.01 0.01 0.00 0.00 0.00 0.02 0.02 0.00 0.02 0.05 0.10 0.11 0.09 0.08 0.05 0.04 0.05 0.05 0.05 0.07 0.11 0.11 0.07 0.08 0.11 0.07 0.04 0.01 0.01 0.00 0.00 0.00 0.00 0.01 0.02 0.02 0.01 0.00 0.00 0.00 0.00 0.00 0.00
0.01 0.02 0.01 0.01 0.01 0.01 0.00 0.00 0.00 0.02 0.01 0.00 0.00 0.02 0.07 0.08 0.09 0.08 0.07 0.05 0.03 0.03 0.05 0.09 0.08 0.14 0.16 0.16 0.14 0.10 0.04 0.02 0.01 0.00 0.00 0.00 0.01 0.04 0.09 0.08 0.03 0.00 0.00 0.00 0.00 0.00 0.00
0.01 0.02 0.02 0.01 0.02 0.02 0.00 0.00 0.00 0.00 0.02 0.00 0.00 0.01 0.07 0.08 0.08 0.10 0.08 0.07 0.06 0.04 0.04 0.08 0.06 0.06 0.08 0.09 0.09 0.07 0.03 0.01 0.01 0.01 0.01 0.01 0.01 0.03 0.03 0.02 0.00 0.00 0.00 0.00 0.00 0.00 0.00
MSLP
1017.17 1016.93 1016.79 1016.76 1016.61 1016.48 1016.02 1015.40 1015.28 1015.54 1015.35 1014.99 1014.63 1014.12 1013.95 1013.99 1014.25 1014.22 1014.20 1014.06 1013.82 1013.67 1013.44 1013.27 1013.05 1013.03 1013.11 1012.90 1011.60 1011.12 1011.11 1011.38 1011.79 1011.95 1012.07 1012.19 1012.50 1012.78 1012.89 1012.97 1013.10 1013.23 1012.96 1012.84 1012.73 1012.80 1012.86
1016.88 1016.54 1016.37 1016.20 1016.18 1016.01 1015.61 1015.25 1015.05 1015.17 1015.01 1014.59 1014.28 1014.02 1013.85 1013.69 1013.84 1013.80 1014.01 1013.94 1013.76 1013.42 1013.30 1013.08 1012.85 1012.83 1012.97 1012.42 1010.94 1011.09 1011.15 1011.63 1011.79 1011.95 1011.97 1012.08 1012.11 1012.30 1012.67 1012.82 1013.01 1012.93 1012.98 1012.97 1012.98 1013.05 1013.09
1016.60 1016.24 1015.90 1015.64 1015.57 1015.67 1015.51 1015.22 1015.13 1015.08 1014.72 1014.27 1013.88 1013.57 1013.44 1013.42 1013.38 1013.53 1013.46 1013.64 1013.70 1013.31 1013.05 1012.91 1012.68 1012.53 1012.56 1011.37 1010.83 1011.16 1011.46 1011.27 1011.53 1011.72 1011.95 1011.88 1011.97 1012.24 1012.53 1012.98 1013.05 1013.15 1013.40 1013.28 1013.19 1013.29 1013.40
1016.01 1015.87 1015.47 1015.03 1014.93 1015.09 1015.10 1014.67 1015.02 1014.76 1014.38 1014.06 1013.52 1013.46 1013.17 1013.10 1013.03 1013.13 1013.22 1013.06 1013.37 1013.29 1012.85 1012.62 1012.50 1012.44 1011.81 1010.90 1011.09 1011.36 1011.52 1011.72 1011.61 1011.59 1011.81 1011.92 1011.90 1012.30 1012.77 1013.14 1013.56 1013.78 1013.98 1013.94 1013.58 1013.57 1013.82
1015.26 1015.14 1014.95 1014.71 1014.48 1014.53 1014.53 1014.70 1014.31 1014.14 1014.08 1013.63 1013.52 1013.52 1013.01 1012.73 1012.66 1012.75 1012.96 1012.89 1012.82 1012.93 1012.69 1012.37 1012.51 1012.40 1011.54 1010.92 1011.13 1011.20 1011.45 1011.84 1011.84 1012.00 1011.90 1012.09 1012.20 1013.00 1013.40 1014.03 1014.62 1014.84 1014.63 1014.41 1014.01 1013.94 1014.08
1014.41 1014.36 1014.40 1014.28 1014.00 1013.97 1014.01 1013.94 1013.96 1013.92 1013.71 1013.20 1013.41 1013.31 1012.67 1012.59 1012.16 1012.34 1012.62 1012.67 1012.51 1012.72 1012.47 1012.30 1012.13 1012.46 1011.32 1010.64 1010.61 1010.91 1011.32 1011.72 1012.20 1012.32 1012.56 1012.64 1013.46 1013.90 1014.53 1014.65 1014.96 1014.85 1014.92 1014.57 1014.35 1014.38 1014.52
1013.60 1013.78 1013.71 1013.70 1013.72 1013.52 1013.69 1013.43 1013.12 1012.81 1013.09 1013.04 1012.89 1012.72 1012.40 1012.19 1011.66 1011.91 1012.74 1012.66 1013.05 1012.97 1012.22 1010.76 1010.47 1010.36 1009.96 1010.37 1010.48 1011.03 1011.22 1011.70 1012.29 1012.67 1013.11 1013.21 1014.13 1013.90 1013.43 1014.00 1014.01 1014.23 1014.51 1014.50 1014.44 1014.51 1014.84
1012.85 1013.16 1013.18 1013.09 1013.25 1013.12 1013.32 1013.26 1013.07 1012.84 1012.77 1012.38 1012.37 1012.52 1012.03 1011.51 1011.04 1011.40 1012.26 1011.83 1011.25 1011.08 1011.34 1010.37 1010.36 1010.16 1010.01 1009.81 1010.64 1011.12 1011.20 1011.76 1012.37 1013.17 1013.49 1014.12 1013.58 1013.34 1013.54 1014.11 1014.28 1014.35 1014.52 1014.71 1014.78 1014.89 1015.25
1012.46 1012.56 1012.70 1012.71 1012.85 1012.85 1012.84 1012.79 1012.73 1012.67 1012.34 1012.03 1012.18 1012.09 1011.63 1011.33 1010.26 1011.03 1011.36 1011.18 1010.70 1010.88 1011.10 1009.83 1009.61 1009.69 1009.86 1010.17 1010.11 1010.64 1011.18 1011.58 1012.35 1013.24 1013.61 1013.76 1012.95 1012.92 1013.50 1014.09 1014.53 1014.63 1014.75 1014.95 1015.23 1015.59 1016.00
1012.24 1012.39 1012.40 1012.45 1012.58 1012.45 1012.47 1012.40 1012.30 1012.04 1012.03 1011.68 1011.53 1011.28 1011.39 1011.34 1010.00 1009.84 1010.47 1010.55 1010.88 1011.02 1011.14 1009.69 1009.32 1008.58 1009.32 1009.81 1010.28 1010.17 1010.57 1011.02 1012.06 1012.57 1013.49 1013.44 1012.85 1013.24 1013.52 1013.89 1014.09 1014.80 1014.59 1015.09 1015.89 1016.59 1017.35
1012.41 1012.24 1012.24 1012.18 1012.21 1012.23 1012.12 1012.11 1011.98 1011.82 1011.44 1011.39 1011.03 1010.86 1011.09 1011.23 1010.42 1008.87 1009.04 1009.88 1010.86 1011.37 1011.04 1008.56 1008.40 1007.87 1008.34 1009.55 1009.74 1010.54 1010.50 1010.77 1011.41 1012.05 1012.89 1012.58 1012.73 1013.09 1013.70 1013.46 1013.82 1014.70 1015.00 1016.02 1016.90 1017.99 1018.30
1012.64 1012.32 1012.22 1012.06 1011.98 1011.94 1011.97 1011.83 1011.62 1011.41 1011.21 1011.10 1010.97 1010.87 1010.40 1009.94 1010.38 1008.67 1008.68 1009.31 1010.84 1011.92 1009.72 1008.52 1008.17 1008.11 1009.02 1009.63 1010.16 1010.48 1010.79 1010.85 1011.09 1011.95 1012.43 1012.63 1012.68 1012.79 1013.06 1013.80 1014.18 1015.13 1016.04 1017.44 1018.64 1019.33 1019.63
1012.82 1012.44 1012.12 1011.90 1011.78 1011.71 1011.64 1011.60 1011.32 1011.08 1010.91 1010.88 1011.00 1010.89 1010.55 1010.20 1009.57 1008.89 1008.44 1009.09 1010.64 1009.61 1008.37 1008.72 1008.43 1008.45 1008.86 1009.68 1010.60 1010.39 1010.67 1011.02 1010.87 1012.12 1012.60 1012.93 1013.01 1012.92 1013.04 1014.01 1014.90 1015.44 1016.81 1019.11 1020.31 1020.69 1019.78
1013.03 1012.51 1012.08 1011.81 1011.60 1011.46 1011.34 1011.26 1011.05 1010.78 1010.82 1010.52 1010.73 1010.42 1009.67 1009.56 1009.37 1009.46 1008.52 1008.52 1008.02 1007.48 1007.89 1007.80 1007.87 1008.80 1009.10 1009.44 1010.39 1010.55 1010.57 1010.86 1010.69 1010.88 1012.01 1012.80 1013.58 1012.93 1012.72 1013.12 1013.87 1015.35 1016.18 1017.95 1019.37 1020.57 1019.91
1013.20 1012.72 1012.23 1011.84 1011.61 1011.38 1011.17 1010.94 1010.80 1010.69 1010.40 1010.13 1009.85 1009.38 1008.75 1008.47 1008.89 1009.06 1008.17 1006.44 1005.54 1005.25 1006.22 1007.02 1008.02 1009.23 1009.50 1009.23 1009.52 1010.29 1010.36 1009.86 1009.52 1009.86 1010.43 1012.13 1012.56 1012.72 1012.85 1012.90 1013.44 1015.35 1015.93 1016.22 1018.22 1019.93 1020.24
1013.64 1012.95 1012.33 1011.95 1011.55 1011.26 1010.97 1010.66 1010.49 1010.52 1010.24 1009.79 1009.51 1008.55 1006.94 1006.81 1007.72 1007.95 1006.51 1004.98 1004.68 1004.32 1004.67 1005.80 1006.80 1008.16 1008.73 1008.62 1009.11 1009.66 1009.87 1008.74 1008.87 1009.02 1009.14 1010.38 1012.43 1013.27 1013.28 1013.22 1013.75 1013.92 1014.69 1016.25 1017.61 1019.60 1020.19
1014.06 1013.34 1012.78 1012.20 1011.65 1011.20 1010.84 1010.51 1010.31 1010.19 1010.07 1009.63 1008.80 1007.30 1005.10 1005.54 1006.92 1006.44 1004.28 1004.45 1004.25 1003.70 1003.35 1004.18 1005.40 1006.88 1007.59 1007.75 1008.10 1008.59 1008.43 1008.26 1007.99 1008.72 1009.22 1009.98 1011.07 1013.86 1013.58 1013.46 1013.32 1014.23 1014.45 1015.36 1016.30 1017.66 1018.61
1014.37 1013.67 1013.08 1012.48 1011.81 1011.27 1010.84 1010.53 1010.22 1009.91 1009.44 1008.87 1008.66 1007.57 1005.27 1005.33 1005.73 1005.00 1003.76 1003.26 1003.16 1003.42 1003.39 1003.42 1003.85 1004.96 1006.09 1006.75 1007.51 1008.03 1008.00 1007.84 1007.74 1007.78 1008.72 1009.59 1011.21 1013.23 1013.33 1013.28 1013.27 1013.29 1013.75 1014.35 1015.39 1017.00 1017.88
1014.91 1013.95 1013.26 1012.69 1012.01 1011.34 1010.89 1010.55 1010.26 1009.92 1009.52 1009.44 1008.74 1007.46 1005.66 1005.51 1004.15 1003.88 1003.59 1003.44 1003.09 1003.62 1003.30 1003.18 1003.61 1003.87 1004.67 1005.78 1007.20 1007.40 1007.69 1008.17 1008.08 1007.90 1007.83 1008.92 1010.38 1012.82 1013.61 1013.86 1013.52 1013.29 1013.46 1013.56 1014.42 1015.41 1016.75
1015.30 1014.44 1013.48 1012.84 1012.19 1011.55 1010.91 1010.46 1010.19 1009.73 1009.33 1009.35 1009.15 1008.25 1006.14 1005.17 1004.47 1003.53 1003.39 1003.27 1003.38 1003.44 1003.48 1003.13 1003.49 1003.74 1004.64 1005.77 1006.19 1007.18 1008.18 1008.64 1008.55 1008.41 1008.22 1008.36 1009.74 1010.22 1010.76 1011.19 1011.70 1012.82 1012.62 1013.05 1013.86 1015.20 1015.84
1015.76 1014.76 1013.93 1013.15 1012.45 1011.81 1011.27 1010.71 1010.22 1009.69 1009.14 1009.00 1008.72 1007.40 1006.62 1005.45 1004.60 1003.48 1003.27 1002.89 1003.18 1003.97 1004.20 1004.04 1004.46 1004.41 1004.77 1006.29 1006.95 1007.49 1008.40 1009.05 1009.12 1009.15 1009.09 1008.94 1010.13 1010.86 1011.11 1011.28 1011.63 1011.75 1011.93 1012.52 1013.15 1013.49 1014.72
1016.23 1015.21 1014.19 1013.42 1012.69 1012.10 1011.45 1010.88 1010.25 1009.44 1008.75 1008.72 1008.80 1008.01 1006.64 1005.36 1004.34 1003.60 1002.87 1002.97 1003.21 1004.65 1004.67 1005.04 1005.36 1005.73 1005.73 1006.30 1006.36 1007.48 1007.79 1008.62 1008.79 1009.85 1010.22 1010.10 1011.56 1011.39 1011.92 1011.87 1012.04 1012.28 1012.36 1012.56 1013.12 1013.82 1014.47
1016.81 1015.69 1014.70 1013.75 1012.96 1012.22 1011.57 1010.91 1010.17 1009.37 1008.73 1008.44 1008.41 1007.97 1007.54 1005.45 1004.56 1003.75 1002.64 1003.05 1003.28 1004.15 1005.53 1005.60 1005.70 1006.15 1006.89 1007.36 1007.65 1007.64 1008.34 1008.20 1008.58 1009.59 1010.40 1011.12 1011.99 1012.62 1013.33 1013.39 1013.39 1013.53 1012.99 1012.92 1013.29 1013.72 1014.38
1017.11 1016.15 1015.06 1014.11 1013.24 1012.37 1011.63 1010.95 1010.18 1009.39 1008.89 1008.70 1008.49 1008.43 1007.70 1006.44 1005.42 1004.57 1003.67 1003.49 1003.56 1003.48 1004.70 1006.09 1006.27 1006.21 1007.97 1007.80 1007.88 1007.47 1008.78 1009.75 1010.03 1010.28 1010.48 1011.60 1012.55 1012.98 1014.31 1014.54 1014.45 1013.37 1013.55 1013.83 1013.93 1014.77 1015.16
1017.33 1016.40 1015.40 1014.37 1013.41 1012.44 1011.67 1010.79 1010.08 1009.32 1008.79 1008.53 1008.31 1007.94 1007.44 1006.73 1006.13 1005.31 1004.56 1003.92 1004.00 1004.54 1005.97 1006.35 1006.96 1006.81 1006.99 1008.16 1008.77 1009.54 1010.48 1010.90 1011.44 1011.98 1012.47 1011.97 1012.14 1013.84 1014.56 1015.18 1014.79 1014.44 1014.36 1014.52 1014.36 1015.55 1015.89
1017.12 1016.33 1015.43 1014.48 1013.50 1012.57 1011.68 1010.88 1010.10 1009.38 1008.90 1008.70 1008.35 1008.08 1007.60 1007.37 1006.96 1006.62 1005.64 1005.06 1004.89 1005.64 1006.79 1007.18 1007.56 1007.58 1008.09 1008.74 1009.36 1010.09 1011.06 1011.52 1012.61 1012.94 1013.06 1012.25 1012.30 1013.75 1014.75 1015.22 1015.00 1014.54 1014.62 1014.67 1014.72 1015.65 1016.19
1017.23 1016.09 1015.04 1014.21 1013.41 1012.53 1011.69 1010.90 1010.12 1009.52 1008.99 1008.80 1008.48 1008.39 1007.83 1007.62 1007.44 1007.05 1006.50 1006.16 1005.94 1005.95 1006.71 1007.43 1007.96 1008.71 1008.63 1008.60 1009.50 1010.09 1010.82 1010.91 1011.64 1012.34 1013.24 1013.47 1013.72 1013.96 1014.71 1014.91 1014.63 1014.75 1015.05 1015.10 1015.75 1016.19 1016.53
1017.43 1016.16 1014.63 1013.98 1013.21 1012.28 1011.40 1010.78 1010.10 1009.44 1008.94 1008.83 1008.76 1008.45 1008.17 1007.93 1008.11 1007.73 1007.30 1007.02 1006.85 1006.69 1006.85 1007.71 1008.32 1008.76 1009.09 1009.25 1009.72 1010.52 1011.19 1011.64 1012.08 1012.60 1012.43 1012.90 1013.91 1014.55 1015.21 1015.29 1015.04 1014.82 1015.49 1015.73 1016.04 1016.40 1017.29
1018.01 1016.64 1015.42 1014.31 1013.29 1012.34 1011.49 1010.95 1010.25 1009.47 1009.08 1008.93 1008.94 1008.78 1008.27 1008.11 1008.57 1008.33 1008.17 1008.06 1007.80 1007.40 1007.20 1007.62 1007.93 1008.12 1008.56 1009.24 1010.04 1010.78 1012.17 1012.59 1012.77 1013.62 1013.54 1013.93 1013.50 1014.43 1015.37 1015.52 1015.16 1015.49 1015.66 1015.96 1016.32 1017.00 1018.49
Thickness
5477 5467 5465 5469 5484 5490 5506 5521 5535 5542 5552 5566 5579 5590 5601 5611 5616 5623 5629 5635 5644 5651 5660 5668 5676 5680 5683 5684 5693 5709 5710 5710 5709 5710 5706 5703 5697 5692 5687 5690 5693 5692 5698 5702 5705 5706 5707
5438 5432 5428 5432 5441 5455 5471 5487 5507 5520 5532 5547 5561 5572 5583 5595 5606 5615 5620 5627 5633 5644 5651 5660 5668 5674 5678 5675 5702 5704 5708 5705 5706 5705 5704 5704 5699 5699 5693 5691 5688 5693 5696 5699 5699 5701 5703
5415 5415 5415 5419 5424 5428 5438 5455 5471 5491 5511 5530 5545 5555 5567 5577 5590 5602 5611 5619 5624 5633 5644 5650 5659 5667 5670 5679 5697 5698 5698 5704 5704 5703 5699 5704 5704 5698 5695 5687 5692 5691 5687 5689 5693 5696 5697
5408 5405 5409 5413 5416 5419 5420 5434 5446 5464 5486 5506 5527 5538 5548 5561 5573 5586 5599 5609 5615 5622 5634 5642 5650 5658 5662 5682 5687 5690 5693 5692 5698 5701 5700 5701 5702 5696 5691 5691 5678 5679 5674 5671 5687 5687 5691
5404 5403 5403 5406 5410 5413 5415 5417 5429 5447 5463 5481 5503 5519 5534 5545 5557 5569 5582 5595 5605 5611 5622 5633 5639 5647 5655 5674 5675 5682 5686 5683 5688 5690 5694 5695 5695 5683 5682 5666 5657 5657 5658 5663 5678 5681 5684
5403 5400 5398 5401 5405 5408 5411 5415 5420 5431 5451 5467 5478 5500 5516 5528 5543 5556 5566 5578 5592 5600 5610 5620 5630 5634 5651 5662 5671 5674 5677 5677 5676 5678 5678 5681 5670 5664 5657 5655 5640 5654 5654 5661 5668 5676 5678
5401 5398 5396 5397 5398 5403 5406 5412 5419 5427 5434 5445 5462 5481 5499 5518 5530 5543 5550 5561 5570 5581 5598 5620 5633 5641 5655 5660 5666 5664 5668 5667 5665 5666 5659 5668 5658 5658 5666 5664 5672 5664 5666 5667 5671 5672 5672
5400 5396 5395 5396 5395 5398 5400 5405 5410 5416 5425 5436 5449 5465 5483 5506 5520 5528 5536 5553 5570 5586 5588 5611 5619 5630 5642 5651 5647 5651 5658 5654 5654 5647 5651 5648 5654 5664 5666 5663 5666 5665 5664 5662 5665 5666 5666
5397 5395 5393 5392 5392 5394 5396 5400 5404 5408 5413 5429 5436 5456 5474 5490 5513 5513 5530 5547 5561 5569 5573 5596 5611 5621 5629 5637 5641 5642 5648 5646 5643 5637 5640 5640 5665 5660 5663 5656 5654 5654 5653 5655 5659 5657 5656
5395 5392 5390 5389 5388 5392 5394 5397 5400 5405 5408 5417 5431 5451 5465 5474 5506 5519 5524 5539 5544 5551 5544 5573 5593 5610 5618 5626 5628 5638 5642 5644 5637 5636 5635 5641 5657 5650 5652 5654 5654 5644 5657 5657 5650 5638 5626
5390 5389 5386 5386 5386 5388 5391 5393 5396 5399 5406 5409 5423 5444 5458 5465 5475 5509 5538 5526 5526 5530 5505 5578 5584 5607 5613 5612 5624 5623 5634 5637 5631 5634 5634 5642 5642 5647 5642 5653 5656 5650 5653 5645 5639 5620 5622
5386 5386 5384 5384 5385 5386 5386 5389 5392 5395 5399 5403 5414 5428 5451 5465 5469 5513 5517 5511 5504 5496 5497 5550 5573 5581 5591 5599 5605 5613 5617 5628 5630 5626 5629 5631 5641 5643 5646 5639 5644 5634 5630 5619 5600 5598 5584
5381 5382 5383 5383 5384 5383 5383 5383 5387 5390 5394 5397 5403 5415 5435 5451 5473 5492 5498 5491 5478 5489 5540 5537 5556 5574 5588 5585 5590 5600 5604 5606 5611 5604 5607 5621 5627 5635 5639 5629 5627 5628 5618 5566 5572 5549 5593
5375 5377 5379 5380 5381 5382 5382 5382 5382 5385 5385 5391 5395 5411 5429 5443 5459 5473 5481 5480 5482 5522 5525 5541 5558 5564 5572 5584 5582 5589 5595 5599 5606 5612 5599 5601 5597 5622 5634 5633 5626 5616 5616 5580 5576 5570 5597
5371 5372 5373 5375 5376 5377 5379 5380 5379 5379 5382 5385 5391 5407 5426 5447 5454 5462 5466 5477 5498 5531 5547 5537 5544 5546 5553 5572 5574 5579 5584 5603 5618 5613 5616 5598 5611 5616 5622 5626 5628 5606 5599 5616 5583 5573 5567
5365 5367 5369 5370 5372 5373 5374 5376 5377 5375 5376 5380 5388 5409 5436 5445 5450 5457 5468 5487 5526 5537 5551 5543 5539 5541 5542 5566 5572 5576 5576 5600 5608 5614 5624 5613 5597 5598 5606 5614 5609 5609 5612 5591 5575 5559 5569
5359 5361 5362 5365 5368 5371 5372 5373 5373 5372 5371 5373 5383 5410 5439 5444 5446 5450 5473 5492 5525 5534 5547 5557 5543 5534 5551 5564 5574 5578 5586 5599 5611 5606 5611 5606 5601 5576 5592 5590 5598 5596 5594 5594 5590 5567 5559
5352 5355 5356 5358 5362 5365 5368 5369 5370 5369 5371 5376 5383 5401 5427 5441 5450 5457 5469 5510 5524 5525 5535 5548 5554 5551 5553 5562 5565 5571 5579 5593 5597 5605 5603 5601 5574 5556 5574 5587 5591 5595 5589 5588 5578 5577 5547
5345 5349 5351 5353 5357 5361 5363 5365 5366 5365 5367 5370 5374 5392 5417 5429 5453 5458 5481 5498 5512 5512 5529 5542 5551 5560 5561 5563 5558 5570 5576 5571 5580 5592 5600 5593 5570 5542 5558 5565 5572 5578 5585 5591 5582 5577 5562
5340 5343 5347 5349 5352 5355 5360 5362 5363 5364 5367 5370 5368 5383 5414 5425 5440 5470 5476 5494 5493 5506 5521 5538 5545 5555 5557 5556 5565 5560 5557 5557 5564 5576 5584 5590 5573 5582 5586 5589 5584 5575 5583 5584 5584 5554 5563
5334 5338 5341 5344 5347 5350 5353 5357 5359 5362 5368 5371 5366 5385 5392 5420 5436 5462 5477 5493 5491 5489 5501 5517 5530 5544 5550 5539 5546 5545 5542 5546 5553 5557 5563 5575 5567 5570 5572 5573 5572 5576 5579 5580 5575 5584 5569
5328 5331 5336 5339 5343 5345 5348 5351 5355 5361 5368 5370 5367 5376 5390 5409 5423 5447 5468 5472 5494 5474 5489 5491 5500 5499 5509 5534 5542 5534 5538 5546 5555 5542 5543 5547 5528 5537 5541 5560 5563 5565 5567 5566 5569 5562 5567
5323 5326 5329 5334 5338 5342 5345 5349 5354 5360 5366 5370 5369 5375 5382 5415 5427 5447 5466 5475 5490 5491 5472 5486 5495 5496 5503 5498 5502 5509 5509 5518 5530 5533 5520 5520 5513 5517 5522 5517 5522 5527 5545 5550 5556 5555 5560
5319 5321 5323 5327 5332 5337 5342 5346 5352 5357 5364 5367 5370 5372 5383 5408 5422 5433 5452 5464 5481 5495 5496 5475 5481 5499 5479 5487 5495 5503 5496 5493 5497 5498 5509 5509 5508 5496 5489 5495 5508 5525 5507 5515 5530 5508 5515
5316 5317 5318 5320 5326 5333 5339 5346 5350 5357 5362 5367 5370 5374 5381 5401 5408 5422 5432 5454 5464 5472 5455 5466 5467 5476 5482 5478 5477 5476 5471 5483 5472 5473 5478 5493 5500 5484 5498 5486 5494 5481 5493 5500 5519 5500 5498
5316 5316 5317 5317 5320 5327 5336 5343 5349 5354 5360 5364 5369 5373 5380 5387 5399 5402 5422 5434 5449 5444 5442 5448 5453 5460 5460 5461 5465 5466 5471 5471 5461 5458 5460 5477 5480 5485 5469 5484 5472 5485 5483 5490 5497 5500 5481
5313 5318 5320 5318 5319 5324 5332 5339 5346 5351 5357 5362 5368 5370 5377 5384 5388 5396 5414 5422 5427 5438 5440 5440 5440 5441 5444 5451 5453 5463 5460 5465 5473 5471 5457 5459 5456 5471 5453 5458 5461 5463 5470 5477 5479 5491 5467
5309 5316 5323 5321 5321 5325 5331 5336 5343 5349 5355 5360 5363 5368 5374 5377 5378 5383 5393 5408 5417 5426 5436 5430 5436 5432 5432 5439 5443 5439 5443 5437 5441 5441 5453 5458 5452 5451 5442 5443 5475 5457 5457 5462 5454 5452 5452
5302 5310 5316 5319 5321 5325 5328 5333 5339 5346 5351 5356 5360 5364 5371 5375 5374 5378 5383 5387 5396 5409 5420 5419 5426 5428 5432 5426 5427 5423 5420 5417 5431 5429 5432 5440 5446 5442 5441 5442 5443 5445 5450 5443 5444 5442 5428